Theta_e
324 320 323 320 307 307 299 301 305 304 304 308 307 306 306 307 304 302 323 333 334 341 348 352 351 354 354 353 353 353 354 353 352 352 351 350 349 348 346 344 342 340 340 338 336 333 333 336 338
320 318 320 313 303 297 298 303 302 304 306 308 308 308 307 306 311 315 322 331 336 341 348 350 348 353 353 353 353 353 353 353 352 351 351 350 349 347 345 343 341 339 337 336 334 331 329 331 334
317 314 314 309 303 297 298 303 304 305 307 307 307 309 309 308 315 317 324 333 338 340 348 351 348 353 353 353 352 352 352 352 350 350 348 347 346 346 344 342 340 338 336 334 333 329 327 327 332
317 315 310 304 298 300 300 302 304 305 307 308 308 306 310 315 317 324 326 334 338 341 347 347 348 351 352 352 352 352 352 350 349 349 347 346 344 342 341 340 338 336 334 333 330 327 326 327 330
315 312 305 301 299 301 303 304 304 304 305 307 307 305 307 314 322 328 330 336 337 341 346 349 347 349 350 351 351 351 350 349 348 347 346 344 342 338 337 339 336 335 332 331 328 325 324 325 328
311 308 301 298 299 301 303 304 304 304 304 306 306 306 307 313 317 327 333 335 339 340 344 347 342 344 345 346 347 347 348 347 347 347 347 344 340 338 337 336 335 334 331 330 327 324 322 322 324
306 304 299 299 299 299 302 304 304 304 303 305 308 303 308 310 316 326 327 334 337 341 343 345 347 346 336 343 342 344 346 346 346 345 344 342 339 338 335 335 332 330 330 329 326 323 320 319 321
308 306 297 298 298 299 303 303 304 304 303 306 308 303 304 308 314 324 326 327 333 337 340 342 343 343 348 349 337 338 341 342 342 342 338 334 334 333 331 330 332 331 329 328 326 323 319 312 313
305 300 297 296 298 300 303 302 304 305 304 305 305 303 303 306 311 314 316 315 316 314 315 321 336 339 342 347 342 335 335 336 337 336 330 330 340 335 331 328 331 329 327 327 326 322 314 306 305
304 300 296 299 301 302 302 302 303 303 303 303 303 304 304 305 306 307 307 307 308 309 310 311 315 329 339 341 345 346 345 346 344 344 343 342 338 332 329 325 327 327 327 327 325 320 313 313 308
302 299 298 299 302 303 302 302 303 302 300 301 300 301 301 303 303 303 304 305 305 307 310 311 312 315 328 338 342 344 345 345 345 343 343 342 336 328 329 328 326 325 321 324 323 323 320 316 312
299 301 301 302 303 302 301 303 301 301 299 300 300 299 300 300 300 300 302 303 304 307 309 312 313 314 321 337 339 340 341 341 343 342 339 339 337 329 328 327 325 324 324 320 318 319 320 317 314
300 301 301 303 302 301 301 301 300 297 299 299 298 298 298 299 299 300 301 303 304 306 309 311 315 318 319 335 337 337 336 335 334 332 333 333 336 330 327 326 324 322 321 319 317 316 319 319 316
301 300 301 302 301 300 299 299 300 297 299 297 297 296 297 296 297 300 300 302 303 305 304 308 316 317 324 333 327 323 321 320 319 318 322 327 328 330 330 324 322 320 318 316 315 314 317 317 315
300 298 300 301 300 299 300 295 295 297 298 296 295 296 295 295 297 297 298 300 302 301 303 306 317 322 316 312 311 311 310 310 309 310 311 316 320 322 320 318 315 313 312 313 314 313 313 315 311
298 298 296 299 298 298 299 296 295 297 297 295 294 295 295 295 295 297 298 300 300 299 302 307 309 307 306 306 305 304 304 304 303 304 305 308 312 313 313 312 312 315 311 311 310 310 310 312 308
296 294 293 296 298 298 298 296 294 296 296 294 294 294 294 294 295 296 297 299 297 298 301 303 305 304 303 302 300 298 298 297 297 299 300 300 303 308 306 305 306 307 305 306 310 309 308 307 306
294 292 292 294 296 297 296 296 293 293 294 294 293 293 293 293 292 294 295 297 297 297 299 301 303 302 301 300 297 295 293 292 292 293 294 296 299 299 299 303 301 302 301 301 302 305 307 305 305
296 294 294 295 295 295 297 297 294 293 292 292 292 293 292 292 292 293 294 296 297 296 296 296 297 299 301 299 296 293 292 294 293 294 294 294 293 294 296 295 298 298 297 299 302 305 304 304 303
294 293 293 294 294 294 295 294 296 292 292 293 292 292 292 292 292 292 293 294 295 295 296 296 296 297 300 300 298 295 293 292 292 292 292 292 293 293 293 293 293 294 294 293 296 298 301 301 301
292 292 293 293 293 294 293 293 293 289 290 290 291 292 291 292 291 291 291 292 294 294 295 295 295 296 295 294 293 292 292 292 291 290 290 291 292 292 292 292 292 292 292 290 291 292 293 291 296
291 294 293 291 291 289 292 289 291 290 288 288 289 290 291 290 289 289 289 290 290 290 291 292 292 292 292 294 294 293 290 288 289 290 290 290 291 290 290 290 291 290 290 290 290 291 290 291 288
294 293 292 291 291 290 289 288 293 288 286 287 289 290 291 290 289 288 288 288 288 290 290 291 290 290 291 292 292 290 289 289 290 290 289 290 289 290 289 289 289 289 289 289 289 289 289 289 288
293 292 291 290 289 284 290 288 291 288 290 290 290 290 290 289 288 287 287 287 287 289 289 290 289 289 290 290 291 290 289 289 289 289 288 288 288 288 288 288 288 288 287 287 287 288 287 287 287
292 291 285 283 282 283 286 285 291 294 291 292 290 290 290 289 287 286 286 286 286 287 288 288 288 287 289 289 289 289 289 289 288 288 288 288 287 287 287 287 287 286 286 286 286 286 286 285 285
290 292 287 281 281 284 284 283 290 289 291 291 293 292 291 289 288 287 286 286 286 286 287 288 288 287 288 289 288 289 289 289 288 288 288 287 287 287 286 286 286 286 285 285 285 285 285 284 285
289 287 292 282 279 283 288 289 291 287 288 289 290 290 289 288 288 287 286 286 286 286 287 288 287 288 288 288 288 288 289 288 288 288 288 287 287 285 285 285 284 284 284 284 284 284 284 284 284
291 293 285 287 281 280 285 286 289 287 288 289 288 289 290 289 288 287 286 286 286 287 287 288 288 287 288 288 288 288 288 287 287 287 286 286 285 284 284 283 283 283 283 283 283 283 283 283 283
287 287 288 289 288 284 282 286 293 294 293 289 290 291 291 289 288 287 287 287 287 287 287 287 287 287 287 287 287 287 286 286 286 286 285 284 284 283 282 282 282 281 281 281 281 281 281 280 281
292 290 290 287 281 284 283 287 289 291 293 293 292 291 292 290 289 288 288 287 286 286 286 286 287 286 287 287 287 286 286 286 285 285 284 283 282 281 280 280 280 279 279 279 279 278 279 278 278
Wind_Speed
4 4 2 2 4 1 4 4 2 2 2 2 1 3 6 4 5 5 3 6 2 11 12 12 11 10 12 13 12 11 10 12 12 11 11 10 11 12 14 16 13 12 12 12 12 13 12 11 11
3 1 1 1 2 5 6 2 2 3 3 1 1 1 0 7 3 3 3 6 3 11 13 13 11 11 10 13 11 10 10 11 12 12 11 11 11 12 14 15 13 11 11 12 12 12 12 11 10
1 3 3 1 0 4 5 2 2 2 1 1 1 1 3 4 5 4 6 5 5 10 12 11 12 12 11 11 11 9 9 10 11 11 9 12 13 14 14 13 11 11 11 11 12 13 13 11 10
1 3 3 2 7 3 3 3 1 1 2 0 2 4 4 5 6 9 5 3 5 6 10 9 7 12 13 13 13 11 8 9 9 10 13 14 14 11 9 10 10 12 11 11 11 12 12 12 10
1 2 2 3 4 3 1 1 2 2 1 2 2 4 4 6 6 9 6 4 4 6 7 9 4 6 9 10 11 11 10 8 10 10 12 13 13 10 7 7 6 11 9 10 10 12 12 12 11
1 2 3 5 4 2 1 2 2 2 2 3 1 2 5 8 10 9 6 5 4 5 5 7 7 5 5 9 10 9 8 8 8 9 10 13 13 11 11 10 11 10 9 10 11 12 12 12 11
1 2 1 4 6 4 2 1 2 2 3 5 3 2 5 12 12 6 6 5 5 4 4 5 7 7 5 6 8 10 10 9 7 6 8 13 12 11 11 11 10 9 9 10 11 11 12 12 12
1 0 4 2 6 4 3 2 1 3 4 2 3 2 3 10 13 3 6 8 7 7 4 1 2 5 7 8 7 6 9 9 8 7 10 11 11 11 11 11 10 10 8 8 9 10 10 10 11
1 3 3 4 6 5 2 3 2 1 1 3 5 6 6 10 8 5 4 7 6 6 7 6 4 4 6 8 4 5 6 7 8 8 10 10 7 8 6 10 11 10 8 8 9 10 9 6 7
2 2 2 2 3 4 3 1 2 3 2 5 5 10 8 7 9 8 8 7 8 9 9 7 7 6 5 4 7 7 5 5 5 6 11 6 4 4 4 8 9 10 8 8 9 8 6 3 4
1 1 3 3 3 1 3 1 1 2 3 7 6 6 9 8 9 9 9 9 10 10 7 9 7 6 6 4 3 2 3 3 3 5 7 7 7 4 3 4 3 3 5 3 2 3 5 6 5
3 2 2 2 4 4 3 2 3 3 4 3 5 5 6 9 9 10 9 10 11 11 10 10 8 6 6 3 2 1 1 1 2 2 3 4 4 4 4 3 3 2 2 5 3 2 4 5 5
3 2 3 3 5 4 3 4 3 4 5 4 4 6 8 8 9 8 7 8 10 11 12 12 9 6 6 4 3 3 4 5 6 6 6 5 1 3 3 2 2 3 2 3 3 2 3 4 5
2 2 5 5 4 3 5 3 5 4 5 4 3 6 7 9 9 8 10 10 11 10 11 11 10 2 7 6 9 8 8 8 8 8 8 7 3 2 2 3 3 4 3 3 3 3 3 4 3
1 5 6 8 2 4 8 5 5 4 4 4 3 4 5 6 7 9 8 9 10 9 9 12 10 9 13 13 11 10 8 9 8 8 12 11 8 7 6 5 5 4 3 4 3 3 2 2 2
3 3 4 3 4 3 7 4 7 0 6 3 1 2 3 6 6 6 7 7 8 7 8 10 11 14 14 13 12 10 9 9 8 8 8 13 12 11 9 7 7 6 4 3 3 4 1 2 2
3 6 6 3 3 3 8 2 6 2 4 4 2 1 1 3 5 7 7 7 7 6 7 10 13 14 14 14 12 12 13 10 9 8 8 12 13 14 10 7 7 8 7 7 5 5 5 5 5
8 7 5 7 4 5 7 6 7 4 5 4 3 3 3 4 5 5 6 7 7 7 8 9 9 11 12 10 11 10 10 10 9 9 10 12 10 12 8 10 8 6 6 5 4 5 5 6 8
3 5 9 3 3 5 12 12 12 8 6 6 5 5 5 5 4 5 5 6 7 8 9 9 9 8 7 7 8 8 9 10 10 11 15 14 13 11 11 7 9 8 8 9 9 5 9 8 11
6 9 12 5 4 4 10 13 7 10 6 6 7 6 7 7 6 6 6 6 8 9 9 9 10 9 8 7 8 8 9 10 10 10 13 14 14 14 12 12 10 11 9 11 13 13 8 8 10
13 14 11 9 2 4 6 14 13 5 5 5 5 6 6 7 8 7 8 8 8 9 9 10 11 12 12 14 12 11 11 10 10 10 10 12 14 14 13 13 11 11 10 10 12 12 13 8 8
14 12 9 8 5 10 3 8 4 7 8 9 10 10 10 9 7 7 8 9 9 9 8 9 10 12 10 10 10 13 11 11 9 9 9 10 13 14 13 13 13 12 9 11 10 9 9 9 8
5 5 9 6 11 5 8 8 3 5 11 13 15 13 12 10 10 10 8 8 8 8 9 10 12 13 12 13 13 12 13 10 9 9 10 11 11 13 13 12 12 12 9 10 11 10 10 8 6
13 8 5 3 3 9 15 13 7 8 9 16 17 17 16 14 11 9 7 7 8 8 10 11 13 13 12 13 14 14 14 11 9 9 8 8 8 8 11 11 10 10 9 9 8 8 9 8 6
5 12 5 6 6 7 3 9 11 7 8 16 24 21 18 15 14 12 11 9 9 10 10 10 13 13 11 13 13 13 14 13 12 10 8 8 7 7 9 9 9 8 9 8 7 7 7 6 6
15 15 5 8 6 2 2 8 5 1 4 3 17 19 18 17 15 14 12 10 10 9 10 11 12 13 11 11 13 11 11 8 8 8 8 6 6 6 8 8 8 8 8 7 7 6 6 7 6
10 12 2 6 2 2 6 4 5 4 6 9 16 18 20 19 18 17 15 12 11 10 11 12 12 12 11 11 10 10 10 10 9 9 7 6 5 5 5 6 6 6 6 7 8 5 6 7 7
6 12 5 4 6 7 5 6 9 11 16 14 18 22 20 18 17 16 14 14 12 12 12 12 12 12 12 10 9 8 9 8 8 7 7 6 5 5 5 5 5 6 6 7 8 7 8 9 8
7 8 4 2 4 5 4 5 5 12 16 20 19 21 23 22 20 18 17 15 14 13 13 13 12 13 11 9 9 9 8 7 7 6 5 5 5 5 5 6 7 7 8 8 8 9 9 11 11
8 9 12 8 6 4 4 6 4 3 8 14 17 20 21 22 21 19 18 18 16 16 14 13 12 12 11 10 9 8 8 7 6 6 5 4 5 5 5 6 7 8 8 9 10 11 11 12 13
Wind_Direction
350 358 337 237 217 184 103 102 332 143 164 40 62 303 31 17 10 41 89 169 112 161 166 172 145 148 149 143 141 144 142 138 132 126 126 117 113 107 102 94 72 61 56 51 49 50 51 46 46
2 338 226 243 224 151 109 88 131 56 47 2 151 227 188 69 36 82 125 156 162 163 167 169 149 155 157 144 148 150 149 140 134 133 127 130 114 100 89 85 78 63 56 51 46 48 48 41 42
111 343 267 57 73 110 118 145 78 43 69 264 182 339 15 36 52 36 31 133 149 160 173 164 160 158 156 149 153 157 155 147 142 135 128 106 90 82 78 85 80 64 55 50 45 45 47 42 39
298 177 147 264 109 90 70 81 16 180 132 26 342 113 117 25 8 359 9 112 141 152 174 144 177 170 171 167 166 167 160 155 147 130 113 101 88 87 87 101 90 69 57 52 47 46 47 48 42
43 232 164 128 117 115 217 3 319 134 91 73 325 87 74 53 22 33 79 81 121 141 168 172 193 205 187 176 179 160 163 169 156 145 130 119 117 105 95 109 99 71 55 58 51 50 47 48 48
170 287 205 188 147 151 202 339 249 140 71 85 152 108 73 48 26 27 51 64 74 132 162 180 182 236 215 191 177 163 166 167 166 162 144 132 119 107 93 83 78 71 60 59 51 49 45 43 46
34 249 126 146 149 167 138 344 204 73 131 76 355 133 110 35 14 22 45 62 75 91 138 181 195 211 261 246 184 179 174 178 178 172 162 128 119 111 99 86 80 69 60 63 56 54 45 41 42
54 336 147 169 179 146 101 161 46 7 81 3 323 107 139 2 344 22 66 57 68 61 63 92 234 219 232 212 211 206 178 177 166 141 124 130 126 123 112 112 85 75 65 73 62 62 50 52 44
230 218 175 168 175 139 132 174 115 313 276 48 39 47 351 339 348 33 47 50 35 29 17 357 337 269 242 233 183 219 214 173 150 134 137 151 152 139 144 104 114 97 76 85 70 64 50 48 61
275 250 160 135 167 149 131 242 0 223 346 127 130 58 23 15 25 37 25 11 8 357 349 350 337 318 263 255 242 226 213 217 198 175 166 170 127 105 108 116 112 110 99 109 100 85 82 23 22
125 273 150 173 206 186 145 241 105 276 158 41 345 13 19 30 39 35 23 12 354 342 340 343 329 310 290 238 229 248 231 235 222 197 184 167 142 131 140 130 132 129 124 115 87 76 47 37 20
217 183 221 146 157 160 186 147 134 59 74 56 55 39 27 33 34 24 11 0 352 345 345 337 328 293 250 248 206 211 164 109 277 18 221 193 144 145 158 158 147 112 85 112 92 73 61 45 30
224 191 208 204 216 238 149 206 127 94 111 96 68 49 37 33 25 24 11 6 355 353 347 343 326 288 226 185 138 82 55 46 47 29 24 27 14 153 156 142 96 83 83 96 96 83 70 46 24
135 250 271 265 219 184 206 150 182 131 140 104 73 52 39 30 16 13 12 5 4 360 353 341 336 339 172 110 75 66 58 52 49 37 27 44 48 47 124 88 69 62 57 70 76 39 47 80 14
152 274 276 243 251 196 156 151 164 122 158 119 84 63 47 35 23 20 6 5 3 3 356 1 29 52 71 74 73 67 60 60 51 39 33 32 29 67 69 70 67 65 39 82 81 90 79 39 77
245 248 262 126 176 153 211 169 155 183 197 169 76 47 35 42 32 25 13 12 19 12 26 41 62 69 69 74 72 68 64 63 55 47 40 39 47 57 59 62 55 66 51 26 35 5 26 47 22
204 256 220 268 210 168 220 170 159 146 191 169 155 112 79 73 46 27 19 20 29 32 50 65 74 79 84 83 84 77 73 67 58 55 49 44 41 53 62 58 51 34 47 16 21 27 6 16 2
202 213 220 237 169 212 223 228 171 183 208 191 173 156 124 87 41 24 25 29 42 45 61 75 80 90 95 94 89 81 71 63 54 49 49 52 56 59 56 62 51 51 52 26 358 39 41 21 355
194 215 228 198 167 237 239 252 200 187 194 197 189 162 130 94 74 64 60 59 76 64 67 64 76 73 93 90 88 77 83 79 73 68 65 64 62 57 61 59 62 64 53 38 31 20 25 29 1
217 240 238 272 205 244 254 250 188 196 207 206 175 165 143 132 113 91 85 85 83 87 86 88 86 89 90 93 95 90 93 82 78 72 64 60 59 59 59 64 59 47 56 47 38 33 29 30 22
225 227 234 261 153 232 276 257 225 172 166 161 164 150 151 141 127 108 98 93 94 83 83 89 92 94 95 102 105 103 100 93 80 67 63 57 60 59 60 61 58 56 50 45 39 34 32 27 30
231 214 230 224 233 259 223 282 207 193 186 193 180 184 169 158 142 125 118 104 95 90 93 92 97 93 90 93 98 102 99 96 85 80 75 65 59 57 54 56 54 54 50 46 39 34 33 25 28
272 149 204 210 230 265 199 260 196 172 213 200 191 189 180 172 160 149 130 111 98 101 96 96 94 91 94 96 97 98 100 101 102 94 82 71 60 54 51 51 52 52 47 44 40 37 34 31 25
135 107 84 101 191 249 229 221 187 202 214 183 189 191 181 175 169 153 132 134 117 114 109 106 100 91 91 94 96 100 104 103 96 87 79 65 56 54 49 45 47 48 45 37 33 31 29 25 15
180 165 171 211 208 247 133 208 253 207 182 192 184 186 180 175 175 168 164 157 144 130 120 113 108 101 101 100 98 98 98 98 94 90 77 75 62 49 41 42 43 36 32 31 22 18 14 9 353
190 190 197 203 202 177 117 229 239 86 146 198 187 181 175 180 182 177 172 166 157 144 132 128 122 118 115 110 106 105 102 100 94 84 88 72 61 50 33 35 30 24 22 17 7 360 352 346 335
180 212 127 106 67 247 207 227 230 181 189 169 178 180 185 186 184 181 177 176 167 161 155 148 138 131 131 125 121 115 109 103 100 95 84 86 70 60 40 28 26 15 11 0 350 345 332 327 321
213 148 170 223 206 228 209 245 233 206 204 187 185 190 189 188 188 185 184 180 175 173 166 158 150 145 141 137 129 121 115 112 109 103 97 86 76 53 32 16 11 5 2 353 343 337 330 323 316
159 188 212 203 219 222 256 220 208 212 197 191 196 193 188 188 188 188 187 183 184 180 172 166 162 148 151 147 143 140 137 132 122 115 104 85 70 38 19 9 359 357 352 347 337 328 320 316 311
246 216 193 199 182 247 301 250 151 176 192 195 194 195 192 191 190 192 188 184 185 184 178 173 166 162 164 162 162 156 147 145 142 128 111 88 60 34 15 2 353 348 344 340 334 326 321 316 313